sat.trackr.live / text

‹ back to catalog

STARLINK-30367

NORAD 57791 · 2023-134W

PAYLOAD ACTIVE UNKNOWN

§ Identity

Operator
Country
US
Launch date
2023-09-04
Launch site
AFETR
Launch vehicle
Mass (kg)
RCS (m²)

Purposes: comms

External: N2YO · Heavens-Above · Gunter

§ Orbital elements

Epoch: 2026-09-20T04:36:37.995552Z

Period
94.27 min
Inclination
43.0004°
Eccentricity
0.0000710
Mean motion
15.27576260 rev/d
Perigee alt
482.6 km
Apogee alt
483.5 km
Semi-major
6,861.2 km
B*
8.3025e-6
RAAN
176.0168°
Arg perigee
308.6631°
Mean anomaly
51.4157°
Rev number
16,925

§ Raw data

STARLINK-303671 57791U 23134W   26263.19210643 -.00000033  00000+0  83025-5 0  99962 57791  43.0004 176.0168 0000710 308.6631  51.4157 15.27576260169253

JSON: /api/v1/satellites/57791 · /tle

For live sub-satellite position, see the globe view (requires WebGL).

§ Visibility from observer

Set your observer location to see the next 7 days of passes ≥ 10°. The values pass through the URL so the page stays shareable.

No JS? Fill the form by hand. The geolocation button needs JavaScript.